[[{"header":{"parameterUnit":"m.s-1","parameterCategory":1,"la1":30.2991,"la2":30.254,"lo1":-89.0895,"lo2":-89.0444,"dy":0.0017,"dx":0.0017,"nx":28,"ny":28,"refTime":"2023-07-26T21:00:00:Z","depth":0,"parameterNumber":2,"parameterNumberName":"U-component_of_WINDS"},"data":[0,0,0,0,0,0,0,0,0,0,0,0,0,0,0,0,0,0,0,0,0,0,0,0,0,0,0,0,0,0,0,0,0,0,0,0,0,0,0,0,0,0,0,0,0,0,0,0,0,0,0,0,0,0,0,0,0,0,1.287,1.287,0,1.2904,1.2904,1.2905,1.2877,1.2876,1.2875,1.2873,1.291,1.2912,1.2914,0,0,0,0,0,0,0,0,0,0,0,0,0,1.2781,1.2782,1.287,1.2871,1.2871,1.2904,1.2904,1.2905,1.2877,1.2876,1.2874,1.2873,1.2909,1.2911,1.2914,0,0,0,0,0,0,0,0,0,0,0,0,0,1.2818,1.2783,1.287,1.2861,1.2861,1.2904,1.2904,1.2905,1.2877,1.2876,1.2874,1.2872,1.2908,1.2911,1.2914,1.2969,0,0,1.2924,1.2925,0,0,0,0,0,0,0,0,1.2816,1.2821,1.2862,1.2862,1.2861,1.2884,1.2886,1.2926,1.2878,1.2871,1.2873,1.2871,1.2903,1.2906,1.2916,1.297,1.2972,1.2924,1.2926,1.2927,1.2928,0,0,0,0,0,0,0,1.2813,1.2819,1.2884,1.2863,1.2862,1.2855,1.2858,1.2894,1.2896,1.2872,1.287,1.2874,1.2902,1.2913,1.2917,1.2972,1.2924,1.2926,1.2928,1.293,1.3069,1.3071,0,0,0,0,0,0,1.2811,1.2817,1.2882,1.2885,1.2834,1.2858,1.2862,1.2879,1.2896,1.2897,1.2875,1.2872,1.2909,1.2913,1.2918,1.2981,1.2927,1.293,1.2932,1.3067,1.3069,1.3071,0,0,0,0,0,0,1.281,1.2817,1.2881,1.285,1.2858,1.2861,1.2881,1.288,1.2892,1.2899,1.2899,1.2886,1.2908,1.2914,1.2955,1.2982,1.2931,1.2934,1.3065,1.3068,1.307,1.3108,0,0,0,0,0,0,1.2807,1.2817,1.2838,1.2851,1.286,1.2918,1.2883,1.2882,1.2897,1.2893,1.2909,1.291,1.2907,1.2951,1.2958,1.2985,1.2937,1.3063,1.3066,1.307,1.3104,1.3111,1.3118,0,0,0,0,0,1.2804,1.2848,1.2839,1.2847,1.2886,1.292,1.2925,1.292,1.2899,1.292,1.2924,1.291,1.2978,1.2955,1.2964,1.2992,1.3061,1.3065,1.3069,1.3101,1.311,1.3118,0,0,0,0,0,0,1.284,1.285,1.284,1.289,1.2904,1.2915,1.2941,1.293,1.295,1.2946,1.2939,1.2943,1.2986,1.2993,1.2968,1.3043,1.3016,1.3022,1.3037,1.3046,1.3052,1.305,1.2939,0,0,0,0,0,1.2853,1.2879,1.2887,1.293,1.2938,1.2938,1.2953,1.2947,1.2962,1.2968,1.2975,1.299,1.3014,1.3031,1.3054,1.3105,1.3107,1.3128,1.3135,1.314,1.3145,1.317,1.3179,1.3085,1.3085,1.3085,0,0,1.2882,1.289,1.2908,1.2937,1.2948,1.2974,1.2944,1.2974,1.2993,1.2973,1.3011,1.3017,1.3033,1.3079,1.31,1.3086,1.3172,1.3146,1.315,1.3152,1.3176,1.3184,1.3192,1.3088,1.3087,1.3087,0,0,1.2947,1.2957,1.2992,1.3003,1.3018,1.3017,1.3026,1.3038,1.3041,1.3079,1.3063,1.3086,1.3129,1.314,1.3152,1.3218,1.3204,1.3225,1.3261,1.3285,1.3292,1.3299,1.3321,1.3329,1.3231,1.3231,1.3231,0,1.298,1.302,1.3012,1.3043,1.3055,1.3036,1.3072,1.3082,1.3105,1.3114,1.3098,1.3149,1.3159,1.3206,1.3221,1.3232,1.324,1.3223,1.3292,1.3298,1.3304,1.3325,1.3333,1.3233,1.3233,1.3232,1.3232,0,1.3059,1.3087,1.3114,1.3134,1.3149,1.3183,1.3179,1.3196,1.3189,1.3189,1.3228,1.3238,1.3262,1.3273,1.3267,1.3318,1.3309,1.3293,1.3265,1.3316,1.3335,1.3343,1.3236,1.3235,1.3235,1.3234,0,0,1.3149,1.3163,1.3173,1.318,1.3194,1.3215,1.3246,1.3268,1.3282,1.3297,1.3322,1.3357,1.3342,1.3354,1.3349,1.3371,1.3419,1.3352,1.3352,1.3362,1.3474,1.3485,1.3495,1.3411,1.3412,1.3414,1.3472,0,1.3213,1.3267,1.326,1.3311,1.3335,1.3315,1.3342,1.3353,1.3354,1.3375,1.3376,1.34,1.3379,1.3386,1.3407,1.3409,1.3442,1.3405,1.3433,1.3434,1.3428,1.3505,1.3517,1.3572,1.348,1.3481,1.3482,0,1.3296,1.3312,1.3365,1.3372,1.3382,1.3407,1.3424,1.3444,1.3456,1.3455,1.3468,1.3458,1.3488,1.3459,1.35,1.3475,1.3486,1.3489,1.3491,1.3492,1.3461,1.3507,1.359,1.3598,1.3494,1.3493,1.3492,0,1.3354,1.3389,1.3424,1.3432,1.3442,1.3459,1.3464,1.3474,1.3486,1.3502,1.351,1.3529,1.354,1.3555,1.355,1.353,1.3591,1.3563,1.359,1.359,1.3603,1.3602,1.3687,1.3612,1.3612,1.3612,1.3612,0,1.3426,1.3458,1.345,1.3472,1.3507,1.3498,1.3533,1.3536,1.3544,1.3566,1.3551,1.3571,1.3564,1.3584,1.358,1.3613,1.3618,1.3618,1.3616,1.3618,1.3618,1.3625,1.3621,1.3614,1.3614,1.3613,1.3613,0,1.3496,1.3492,1.3529,1.3535,1.3537,1.3562,1.3567,1.3587,1.3586,1.3613,1.3619,1.3617,1.364,1.3636,1.3661,1.3659,1.3699,1.3693,1.3695,1.3693,1.372,1.3717,1.3811,1.3822,1.3741,1.3742,1.3743,0,1.3542,1.3566,1.3573,1.3586,1.3591,1.3613,1.3624,1.3616,1.3629,1.3642,1.366,1.368,1.3696,1.3732,1.3734,1.3752,1.3746,1.3778,1.3749,1.3749,1.3744,1.3743,1.3744,1.3783,1.3784,1.3785,1.3786,0,1.3623,1.3619,1.3636,1.3652,1.3666,1.3679,1.369,1.3701,1.3693,1.3709,1.373,1.3742,1.3766,1.3786,1.3803,1.3808,1.3795,1.3795,1.3802,1.3804,1.3803,1.3802,1.3709,1.3793,1.3792,1.3791,1.3791,1.3791,1.3681,1.3701,1.3708,1.3727,1.3734,1.3744,1.3762,1.3762,1.3779,1.3798,1.3792,1.3816,1.3824,1.3845,1.3851,1.387,1.3858,1.3869,1.3871,1.3874,1.3876,1.38,1.3873,1.3873,1.3873,1.3872,1.3872,0,1.3759,1.3762,1.378,1.3795,1.3809,1.3795,1.3805,1.3819,1.384,1.3848,1.3863,1.3887,1.3905,1.3907,1.3924,1.3938,1.3933,1.3943,1.3942,1.3942,1.3886,1.3878,1.3947,1.3947,1.3947,1.3947,1.3947,1.3947,1.3802,1.3833,1.3829,1.3863,1.3866,1.3888,1.3895,1.3904,1.391,1.3937,1.3952,1.3952,1.3957,1.3974,1.399,1.399,1.3997,1.4009,1.4007,1.3954,1.3947,1.394,1.3931,1.4011,1.4011,1.4061,1.4061,1.4062]},{"header":{"parameterUnit":"m.s-1","parameterCategory":1,"la1":30.2991,"la2":30.254,"lo1":-89.0895,"lo2":-89.0444,"dy":0.0017,"dx":0.0017,"nx":28,"ny":28,"refTime":"2023-07-26T21:00:00:Z","depth":0,"parameterNumber":3,"parameterNumberName":"V-component_of_WINDS"},"data":[0,0,0,0,0,0,0,0,0,0,0,0,0,0,0,0,0,0,0,0,0,0,0,0,0,0,0,0,0,0,0,0,0,0,0,0,0,0,0,0,0,0,0,0,0,0,0,0,0,0,0,0,0,0,0,0,0,0,1.5864,1.5864,0,1.5874,1.5874,1.5874,1.5845,1.5844,1.5843,1.5842,1.5852,1.5853,1.5854,0,0,0,0,0,0,0,0,0,0,0,0,0,1.5819,1.582,1.5864,1.5864,1.5864,1.5874,1.5874,1.5874,1.5845,1.5844,1.5843,1.5842,1.5851,1.5853,1.5854,0,0,0,0,0,0,0,0,0,0,0,0,0,1.5835,1.582,1.5864,1.5851,1.585,1.5874,1.5874,1.5874,1.5845,1.5844,1.5843,1.5841,1.5851,1.5853,1.5854,1.5891,0,0,1.5859,1.586,0,0,0,0,0,0,0,0,1.5834,1.5836,1.5853,1.5852,1.5851,1.5857,1.5861,1.588,1.5846,1.5847,1.5842,1.5841,1.5855,1.5856,1.5861,1.5891,1.5892,1.5859,1.586,1.5861,1.5862,0,0,0,0,0,0,0,1.5833,1.5836,1.5868,1.5853,1.5852,1.5844,1.5845,1.5865,1.5858,1.5847,1.5845,1.5846,1.5854,1.5859,1.5861,1.5892,1.5859,1.5861,1.5862,1.5862,1.5952,1.5953,0,0,0,0,0,0,1.5833,1.5835,1.5868,1.5868,1.5839,1.5846,1.5847,1.5856,1.5858,1.5857,1.5847,1.5845,1.5857,1.5859,1.5861,1.5903,1.5861,1.5863,1.5863,1.5951,1.5952,1.5954,0,0,0,0,0,0,1.5833,1.5837,1.5867,1.5851,1.5854,1.5848,1.5859,1.5857,1.5862,1.5858,1.5857,1.5854,1.5856,1.5858,1.5883,1.5903,1.5863,1.5865,1.5949,1.5951,1.5953,1.5988,0,0,0,0,0,0,1.5831,1.5837,1.5851,1.5852,1.5855,1.589,1.586,1.5858,1.5865,1.5862,1.5864,1.5863,1.5855,1.5881,1.5885,1.5904,1.5866,1.5947,1.595,1.5952,1.5985,1.5991,1.5996,0,0,0,0,0,1.583,1.5861,1.5852,1.5856,1.5873,1.5891,1.5894,1.5884,1.5867,1.5881,1.5878,1.5863,1.59,1.5884,1.5888,1.5908,1.5946,1.5949,1.5952,1.5983,1.599,1.5996,0,0,0,0,0,0,1.5863,1.5861,1.5851,1.5883,1.5887,1.5886,1.5904,1.5892,1.5901,1.5898,1.5885,1.5886,1.5913,1.5913,1.5895,1.5943,1.592,1.5924,1.5942,1.5949,1.5954,1.5953,1.5867,0,0,0,0,0,1.5874,1.5889,1.5886,1.5915,1.5917,1.591,1.5918,1.591,1.5914,1.5916,1.5915,1.592,1.5932,1.594,1.5952,1.5985,1.5985,1.6001,1.6007,1.6011,1.6015,1.6031,1.6038,1.5964,1.5964,1.5964,0,0,1.5897,1.5897,1.5908,1.5921,1.5924,1.5939,1.5912,1.593,1.5941,1.5919,1.5942,1.5941,1.5945,1.5974,1.5987,1.5975,1.6035,1.6015,1.6019,1.602,1.6035,1.6042,1.6048,1.5966,1.5966,1.5966,0,0,1.5946,1.5948,1.5972,1.5975,1.5979,1.5974,1.5979,1.598,1.5979,1.6002,1.5984,1.5997,1.6019,1.6023,1.6027,1.6076,1.6063,1.608,1.6109,1.6125,1.6131,1.6136,1.6153,1.6159,1.6084,1.6084,1.6084,0,1.5974,1.5997,1.5985,1.6004,1.601,1.5989,1.6012,1.6016,1.6024,1.6028,1.6015,1.6041,1.6043,1.6071,1.6083,1.6088,1.6093,1.608,1.6131,1.6136,1.6141,1.6156,1.6163,1.6086,1.6086,1.6086,1.6086,0,1.603,1.6046,1.6064,1.6072,1.608,1.6101,1.6092,1.6101,1.6092,1.6088,1.6111,1.6112,1.6122,1.6128,1.612,1.6156,1.6148,1.6134,1.611,1.615,1.6165,1.6171,1.6089,1.6088,1.6088,1.6087,0,0,1.6101,1.6101,1.6108,1.611,1.6113,1.6125,1.6144,1.6154,1.6162,1.6168,1.6183,1.6202,1.6187,1.6193,1.6184,1.6198,1.6236,1.6182,1.6181,1.6191,1.6274,1.6285,1.6292,1.6227,1.6228,1.6229,1.6274,0,1.6149,1.6182,1.6171,1.6205,1.6218,1.6199,1.6215,1.6218,1.6215,1.6226,1.6222,1.6235,1.6216,1.6219,1.6232,1.6229,1.6252,1.6225,1.624,1.6241,1.6239,1.63,1.6311,1.6354,1.6279,1.628,1.6281,0,1.6209,1.6216,1.6251,1.625,1.6255,1.627,1.6278,1.6289,1.6292,1.6288,1.6293,1.6282,1.63,1.6276,1.6301,1.6282,1.6288,1.6287,1.6288,1.6289,1.6263,1.6301,1.6367,1.6373,1.629,1.6289,1.6289,0,1.6256,1.6275,1.6297,1.63,1.63,1.6311,1.6311,1.6312,1.6319,1.6325,1.6329,1.6338,1.6343,1.635,1.634,1.6324,1.6366,1.6342,1.6362,1.6363,1.6372,1.6371,1.6439,1.6377,1.6376,1.6376,1.6376,0,1.631,1.6332,1.6318,1.6332,1.6355,1.6343,1.6366,1.6364,1.6365,1.6378,1.6362,1.6374,1.6361,1.6372,1.6365,1.6385,1.6388,1.6385,1.6383,1.6386,1.6386,1.6389,1.6386,1.6378,1.6378,1.6377,1.6377,0,1.6367,1.6359,1.6382,1.6379,1.6379,1.6396,1.6393,1.6406,1.6401,1.6417,1.642,1.6412,1.6424,1.6415,1.6427,1.6422,1.6449,1.6443,1.6448,1.6446,1.6467,1.6465,1.6538,1.6547,1.648,1.6481,1.6481,0,1.6401,1.6417,1.6416,1.6423,1.6424,1.6436,1.6442,1.643,1.6437,1.6441,1.6453,1.6463,1.6471,1.649,1.6486,1.6494,1.6488,1.6513,1.6489,1.6492,1.6487,1.6486,1.6487,1.6518,1.6518,1.6519,1.652,0,1.6463,1.6458,1.6468,1.6475,1.6483,1.6489,1.6493,1.65,1.6487,1.6496,1.6507,1.6513,1.6525,1.6535,1.6542,1.6542,1.6529,1.6527,1.6532,1.6536,1.6537,1.6536,1.6461,1.6525,1.6525,1.6524,1.6524,1.6524,1.6509,1.6522,1.6523,1.6533,1.6535,1.6539,1.655,1.6546,1.6556,1.6564,1.6556,1.657,1.6571,1.6579,1.6581,1.6591,1.6581,1.6588,1.659,1.6592,1.6595,1.6536,1.6592,1.6592,1.6592,1.6592,1.6592,0,1.657,1.6569,1.6579,1.6585,1.6593,1.6579,1.6583,1.6591,1.6603,1.6605,1.6613,1.6626,1.6635,1.6631,1.6639,1.6648,1.6642,1.6651,1.665,1.6649,1.6604,1.6598,1.6655,1.6655,1.6655,1.6655,1.6655,1.6655,1.6602,1.6623,1.6618,1.6638,1.6637,1.665,1.6654,1.6657,1.6658,1.6673,1.6681,1.6678,1.6677,1.6685,1.6693,1.6692,1.6695,1.6706,1.6702,1.6659,1.6653,1.6647,1.6641,1.6707,1.6707,1.6747,1.6747,1.6747]}]]